Lander, WY

3:40 PM MDT on March 23, 2017 (GMT -0600)
Hunt

Weather History for KLND - November, 2012

Change the Weather History Date:

Saturday, November 10, 2012

  Actual Average Record
Temperature  
Mean Temperature 20 °F 34 °F  
Max Temperature 26 °F 46 °F 69 °F (2005)
Min Temperature 14 °F 23 °F -15 °F (1920)
Degree Days  
Heating Degree Days 45 31  
Month to date heating degree days 207 282  
Since 1 July heating degree days 896 1143  
Cooling Degree Days 0 0  
Month to date cooling degree days 0 0  
Year to date cooling degree days 779 472  
Moisture  
Dew Point 19 °F    
Average Humidity 89    
Maximum Humidity 100    
Minimum Humidity 77    
Precipitation  
Precipitation 0.16 in 0.03 in 0.54 in (1978)
Month to date precipitation 0.49 0.32  
Year to date precipitation 6.20 11.54  
Snow  
Snow 2.70 in 0.40 in - ()
Month to date snowfall 4.8 4.1  
Since 1 July snowfall 10.4 16.6  
Since 1 September snowfall 10.4 16.6  
Snow Depth 4.00 in    
Sea Level Pressure  
Sea Level Pressure 29.69 in    
Wind  
Wind Speed 5 mph (NE)    
Max Wind Speed 10 mph    
Max Gust Speed 17 mph    
Visibility 3 miles    
Events Fog , Snow    
T = Trace of Precipitation, MM = Missing Value Source: NWS Daily Summary

Daily Weather History Graph

Daily Weather History Graph

Search for Another Location

Airport or City:

Trip Planner

Search our weather history database for the weather conditions in past years. The results will help you decide how hot, cold, wet, or windy it might be!

Date:

Astronomy

Nov. 10, 2012 Rise Set
Actual Time 7:01 AM MST 4:56 PM MST
Civil Twilight 6:31 AM MST 5:26 PM MST
Nautical Twilight 5:57 AM MST 6:00 PM MST
Astronomical Twilight 5:23 AM MST 6:33 PM MST
Moon 3:05 AM MST (11/10) 2:48 PM MST (11/10)
Length of Visible Light 10h 55m
Length of Day
9h 54m
Waning Crescent, 14% of the Moon is Illuminated
Nov 10
Waning Crescent
Nov 13
New
Nov 20
First Quarter
Nov 28
Full
Dec 6
Last Quarter

Hourly Weather History & Observations

Time (MST) Temp. Windchill Dew Point Humidity Pressure Visibility Wind Dir Wind Speed Gust Speed Precip Events Conditions
12:07 AM 26.6 °F - 24.8 °F 93% 29.57 in 1.0 mi Calm Calm - 0.00 in Snow Light Snow
12:25 AM 26.6 °F - 24.8 °F 93% 29.57 in 2.5 mi Calm Calm - 0.00 in Snow Light Snow
12:34 AM 26.6 °F 21.2 °F 23.0 °F 86% 29.58 in 4.0 mi NNW 4.6 mph - 0.00 in   Overcast
12:53 AM 26.1 °F - 23.0 °F 88% 29.57 in 6.0 mi Calm Calm - 0.01 in Snow Light Snow
1:26 AM 26.6 °F - 23.0 °F 86% 29.58 in 2.5 mi Calm Calm - 0.00 in   Overcast
1:40 AM 26.6 °F - 23.0 °F 86% 29.59 in 3.0 mi Calm Calm - 0.00 in   Overcast
1:53 AM 26.1 °F - 23.0 °F 88% 29.63 in 6.0 mi Calm Calm - 0.00 in   Overcast
2:45 AM 26.6 °F - 24.8 °F 93% 29.57 in 2.5 mi Calm Calm - 0.00 in   Overcast
2:53 AM 26.1 °F 21.9 °F 24.1 °F 92% 29.64 in 3.0 mi SSE 3.5 mph - 0.00 in   Overcast
3:08 AM 26.6 °F - 24.8 °F 93% 29.58 in 2.5 mi Calm Calm - 0.01 in   Overcast
3:15 AM 26.6 °F - 24.8 °F 93% 29.57 in 3.0 mi Calm Calm - 0.01 in   Overcast
3:43 AM 24.8 °F 20.5 °F 23.0 °F 93% 29.56 in 2.5 mi ESE 3.5 mph - 0.01 in   Overcast
3:53 AM 25.0 °F 20.7 °F 24.1 °F 96% 29.61 in 2.0 mi ESE 3.5 mph - 0.01 in   Overcast
4:05 AM 24.8 °F 17.9 °F 24.8 °F 100% 29.57 in 2.0 mi ESE 5.8 mph - 0.00 in Snow Light Snow
4:13 AM 24.8 °F 19.1 °F 24.8 °F 100% 29.57 in 2.0 mi ESE 4.6 mph - 0.00 in Snow Light Snow
4:20 AM 24.8 °F 20.5 °F 24.8 °F 100% 29.57 in 1.5 mi ENE 3.5 mph - 0.00 in Snow Light Snow
4:44 AM 24.8 °F 17.9 °F 21.2 °F 86% 29.57 in 2.0 mi NE 5.8 mph - 0.01 in   Overcast
4:53 AM 24.1 °F 18.2 °F 21.9 °F 91% 29.63 in 2.0 mi ENE 4.6 mph - 0.01 in   Overcast
5:09 AM 24.8 °F 17.9 °F 23.0 °F 93% 29.57 in 1.8 mi NNE 5.8 mph - 0.00 in Snow Light Snow
5:24 AM 24.8 °F 19.1 °F 23.0 °F 93% 29.58 in 1.5 mi NNE 4.6 mph - 0.01 in Snow Light Snow
5:49 AM 23.0 °F 14.7 °F 21.2 °F 93% 29.59 in 2.0 mi ENE 6.9 mph - 0.02 in Snow Light Snow
5:53 AM 23.0 °F 15.8 °F 21.9 °F 96% 29.67 in 3.0 mi ENE 5.8 mph - 0.02 in Snow Light Snow
6:31 AM 21.2 °F 10.1 °F 21.2 °F 100% 29.60 in 2.5 mi North 10.4 mph - 0.00 in Snow Light Snow
6:53 AM 21.9 °F 14.5 °F 19.9 °F 92% 29.69 in 2.0 mi North 5.8 mph - 0.00 in Snow Light Snow
7:11 AM 21.2 °F 11.7 °F 19.4 °F 93% 29.61 in 1.5 mi NNE 8.1 mph - 0.01 in Snow Light Snow
7:25 AM 21.2 °F 10.9 °F 19.4 °F 93% 29.62 in 0.5 mi NNE 9.2 mph - 0.02 in Fog , Snow Light Snow
7:37 AM 21.2 °F 10.1 °F 19.4 °F 93% 29.62 in 0.5 mi NNE 10.4 mph - 0.03 in Fog , Snow Snow
7:53 AM 21.0 °F 12.4 °F 19.0 °F 92% 29.72 in 0.2 mi North 6.9 mph - 0.05 in Fog , Snow Snow
8:07 AM 19.4 °F 9.5 °F 17.6 °F 93% 29.63 in 0.5 mi NNW 8.1 mph - 0.01 in Fog , Snow Snow
8:14 AM 19.4 °F 9.5 °F 17.6 °F 93% 29.63 in 0.5 mi North 8.1 mph - 0.01 in Fog , Snow Snow
8:21 AM 19.4 °F 10.4 °F 17.6 °F 93% 29.63 in 1.0 mi NNW 6.9 mph - 0.01 in Snow Light Snow
8:32 AM 19.4 °F 9.5 °F 17.6 °F 93% 29.63 in 1.5 mi NNW 8.1 mph - 0.02 in Snow Light Snow
8:39 AM 19.4 °F 9.5 °F 17.6 °F 93% 29.63 in 1.5 mi NNW 8.1 mph - 0.02 in Snow Light Snow
8:51 AM 19.4 °F 11.5 °F 17.6 °F 93% 29.64 in 2.5 mi NNW 5.8 mph - 0.02 in Snow Light Snow
8:53 AM 19.9 °F 12.1 °F 17.1 °F 89% 29.74 in 3.0 mi North 5.8 mph - 0.02 in Snow Light Snow
9:35 AM 19.4 °F 12.8 °F 17.6 °F 93% 29.65 in 1.8 mi North 4.6 mph - 0.00 in Snow Light Snow
9:50 AM 19.4 °F 10.4 °F 17.6 °F 93% 29.65 in 0.8 mi North 6.9 mph - 0.01 in Snow Light Snow
9:53 AM 19.9 °F 11.1 °F 17.1 °F 89% 29.76 in 0.8 mi North 6.9 mph - 0.01 in Snow Light Snow
10:06 AM 19.4 °F 10.4 °F 17.6 °F 93% 29.66 in 0.5 mi NNE 6.9 mph - 0.00 in Fog , Snow Snow
10:19 AM 19.4 °F 7.9 °F 15.8 °F 86% 29.67 in 0.8 mi NNE 10.4 mph - 0.01 in Snow Light Snow
10:23 AM 19.4 °F 8.6 °F 15.8 °F 86% 29.67 in 1.0 mi NNE 9.2 mph - 0.01 in Snow Light Snow
10:40 AM 19.4 °F 11.5 °F 17.6 °F 93% 29.67 in 0.8 mi NNE 5.8 mph - 0.01 in Snow Light Snow
10:53 AM 19.9 °F 9.3 °F 17.1 °F 89% 29.79 in 0.5 mi NNE 9.2 mph - 0.02 in Fog , Snow Snow
11:04 AM 19.4 °F 9.5 °F 15.8 °F 86% 29.68 in 1.0 mi NE 8.1 mph - 0.00 in Snow Light Snow
11:14 AM 19.4 °F 10.4 °F 15.8 °F 86% 29.68 in 1.0 mi NE 6.9 mph - 0.00 in Snow Light Snow
11:20 AM 19.4 °F 12.8 °F 15.8 °F 86% 29.68 in 0.8 mi NNE 4.6 mph - 0.00 in Snow Light Snow
11:30 AM 19.4 °F 10.4 °F 15.8 °F 86% 29.68 in 0.5 mi NNE 6.9 mph - 0.00 in Fog , Snow Snow
11:53 AM 19.9 °F 12.1 °F 17.1 °F 89% 29.79 in 1.0 mi NNE 5.8 mph - 0.01 in Snow Light Snow
11:58 AM 19.4 °F 11.5 °F 17.6 °F 93% 29.67 in 1.8 mi NNE 5.8 mph - 0.00 in Snow Light Snow
12:13 PM 19.4 °F 12.8 °F 17.6 °F 93% 29.67 in 2.0 mi NE 4.6 mph - 0.00 in Snow Light Snow
12:38 PM 21.2 °F 16.4 °F 17.6 °F 86% 29.67 in 2.5 mi NE 3.5 mph - 0.00 in Snow Light Snow
12:53 PM 21.9 °F - 18.0 °F 85% 29.79 in 2.5 mi Calm Calm - 0.00 in Snow Light Snow
1:05 PM 21.2 °F - 17.6 °F 86% 29.68 in 1.5 mi Calm Calm - 0.00 in Snow Light Snow
1:14 PM 21.2 °F 16.4 °F 17.6 °F 86% 29.68 in 2.0 mi SE 3.5 mph - 0.00 in Snow Light Snow
1:30 PM 21.2 °F - 17.6 °F 86% 29.68 in 4.0 mi Calm Calm - 0.00 in Snow Light Snow
1:39 PM 21.2 °F 16.4 °F 17.6 °F 86% 29.68 in 7.0 mi ESE 3.5 mph - 0.00 in   Overcast
1:53 PM 21.0 °F 10.6 °F 18.0 °F 88% 29.80 in 10.0 mi East 9.2 mph - 0.00 in   Overcast
2:40 PM 19.4 °F 9.5 °F 15.8 °F 86% 29.70 in 10.0 mi ENE 8.1 mph - N/A   Overcast
2:53 PM 19.9 °F 9.3 °F 16.0 °F 85% 29.82 in 10.0 mi ENE 9.2 mph - N/A   Overcast
3:53 PM 19.0 °F 7.5 °F 15.1 °F 85% 29.86 in 10.0 mi ESE 10.4 mph - N/A   Overcast
4:53 PM 19.0 °F 12.3 °F 14.0 °F 81% 29.88 in 10.0 mi East 4.6 mph - N/A   Overcast
5:21 PM 19.4 °F 10.4 °F 14.0 °F 80% 29.76 in 10.0 mi ENE 6.9 mph - N/A   Overcast
5:53 PM 18.0 °F 9.8 °F 14.0 °F 84% 29.91 in 10.0 mi SE 5.8 mph - N/A   Overcast
6:53 PM 17.1 °F 8.7 °F 14.0 °F 88% 29.94 in 9.0 mi SE 5.8 mph - N/A   Overcast
7:25 PM 17.6 °F 12.3 °F 12.2 °F 79% 29.80 in 7.0 mi ESE 3.5 mph - N/A   Overcast
7:53 PM 17.1 °F 11.7 °F 12.9 °F 84% 29.95 in 8.0 mi ESE 3.5 mph - N/A   Overcast
8:53 PM 17.1 °F 8.7 °F 12.9 °F 84% 29.97 in 10.0 mi ENE 5.8 mph - N/A   Overcast
9:53 PM 15.1 °F 5.2 °F 10.9 °F 84% 30.00 in 8.0 mi NE 6.9 mph - 0.00 in   Overcast
10:51 PM 15.8 °F - 10.4 °F 79% 29.84 in 4.0 mi Calm Calm - 0.00 in Snow Light Snow
10:53 PM 15.1 °F - 10.9 °F 84% 30.01 in 4.0 mi Calm Calm - 0.00 in Snow Light Snow
11:53 PM 14.0 °F 8.2 °F 10.9 °F 88% 30.03 in 4.0 mi ENE 3.5 mph - 0.00 in Snow Light Snow